No particular awareness of the weather is required.    There are no Weather-warnings


Meteo18 Weather Cam more information Meteo18 Weather Cam


Thunder radar more information blitzortung!


Rain radar more information rain snow radar


Visit our other weather sites:

Template documentation
and downloads

And another site



Weather Underground History page Text

Daily Summary for October 2, 2017 Units:  English    Metric   Both
« Previous Day
Next Day »
Daily Weekly Monthly Yearly Custom
  High: Low: Average:
Temperature: TemperatureC °F 13.8 °F 16.3 °F
Dew Point: DewpointC °F 13.3 °F 15.3 °F
Humidity: Humidity % 85 % 93 %
Wind Speed: WindSpeedKMH mph 0.0 mph 8.1 mph
Wind Gust: WindSpeedGustKMH mph - -
Wind:- - SW
Pressure: PressurehPa in 1020.2 in -
Precipitation: 1.0 in    
Historical Graphs
 
 
Tabular Data for October 2, 2017
Time Temperature Dew Point Pressure Wind Wind Speed Wind Gust Humidity Rainfall Rate (Hourly)
TemperatureC °F DewpointC °F PressurehPa in Calm     Humidity % HourlyPrecipMM in
00:02 13.8 °F 13.3 °F 1020.9 in SSW 6.4 mph 17.7 mph 97 % 0.0 in
00:07 13.8 °F 13.3 °F 1020.9 in SSW 8.0 mph 17.7 mph 97 % 0.0 in
00:12 13.8 °F 13.3 °F 1020.9 in SSW 4.8 mph 14.5 mph 97 % 0.0 in
00:17 13.8 °F 13.3 °F 1020.9 in SW 9.7 mph 14.5 mph 97 % 0.0 in
00:22 13.8 °F 13.3 °F 1020.9 in SW 8.0 mph 14.5 mph 97 % 0.0 in
00:32 13.8 °F 13.3 °F 1020.9 in South 4.8 mph 12.9 mph 97 % 0.0 in
00:37 13.8 °F 13.3 °F 1020.9 in SW 12.9 mph 14.5 mph 97 % 0.0 in
00:42 13.8 °F 13.3 °F 1020.9 in SW 4.8 mph 14.5 mph 97 % 0.0 in
00:47 13.8 °F 13.3 °F 1020.5 in SW 8.0 mph 14.5 mph 97 % 0.0 in
00:57 13.8 °F 13.3 °F 1020.5 in SW 8.0 mph 14.5 mph 97 % 0.0 in
01:02 13.8 °F 13.3 °F 1020.5 in SSW 4.8 mph 11.3 mph 97 % 0.0 in
01:12 13.8 °F 13.3 °F 1020.9 in SSW 4.8 mph 12.9 mph 97 % 0.0 in
01:22 13.8 °F 13.3 °F 1020.9 in SSW 3.2 mph 11.3 mph 97 % 0.0 in
01:32 13.8 °F 13.3 °F 1020.9 in SSW 3.2 mph 9.7 mph 97 % 0.0 in
01:37 13.8 °F 13.3 °F 1020.9 in South 4.8 mph 9.7 mph 97 % 0.0 in
01:42 13.9 °F 13.4 °F 1020.5 in SSW 3.2 mph 9.7 mph 97 % 0.0 in
01:47 13.9 °F 13.4 °F 1020.5 in SW 6.4 mph 8.0 mph 97 % 0.0 in
01:52 13.9 °F 13.4 °F 1020.5 in SSW 4.8 mph 8.0 mph 97 % 0.0 in
01:57 13.9 °F 13.4 °F 1020.5 in SW 8.0 mph 11.3 mph 97 % 0.0 in
02:02 13.9 °F 13.4 °F 1020.5 in SW 11.3 mph 11.3 mph 97 % 0.0 in
02:07 13.9 °F 13.4 °F 1020.5 in SSW 9.7 mph 12.9 mph 97 % 0.0 in
02:12 13.9 °F 13.4 °F 1020.5 in SW 8.0 mph 12.9 mph 97 % 0.0 in
02:17 14.0 °F 13.5 °F 1020.5 in SSW 4.8 mph 12.9 mph 97 % 0.0 in
02:22 14.0 °F 13.5 °F 1020.5 in SSW 8.0 mph 14.5 mph 97 % 0.0 in
02:27 14.0 °F 13.5 °F 1020.5 in SSW 6.4 mph 14.5 mph 97 % 0.3 in
02:32 14.1 °F 13.6 °F 1020.5 in SSW 4.8 mph 14.5 mph 97 % 0.3 in
02:37 14.1 °F 13.6 °F 1020.5 in SSW 8.0 mph 11.3 mph 97 % 0.3 in
02:42 14.1 °F 13.6 °F 1020.5 in South 3.2 mph 11.3 mph 97 % 0.3 in
02:47 14.1 °F 13.6 °F 1020.5 in SW 8.0 mph 12.9 mph 97 % 0.3 in
02:52 14.1 °F 13.6 °F 1020.5 in SW 8.0 mph 12.9 mph 97 % 0.3 in
02:57 14.1 °F 13.6 °F 1020.2 in SW 4.8 mph 12.9 mph 97 % 0.3 in
03:02 14.2 °F 13.7 °F 1020.2 in SSW 4.8 mph 12.9 mph 97 % 0.3 in
03:12 14.2 °F 13.7 °F 1020.2 in SSW 4.8 mph 12.9 mph 97 % 0.3 in
03:17 14.2 °F 13.7 °F 1020.2 in SSW 3.2 mph 12.9 mph 97 % 0.3 in
03:22 14.2 °F 13.7 °F 1020.2 in SW 9.7 mph 12.9 mph 97 % 0.3 in
03:27 14.2 °F 13.7 °F 1020.2 in SW 4.8 mph 12.9 mph 97 % 0.0 in
03:32 14.2 °F 13.7 °F 1020.5 in SSW 8.0 mph 12.9 mph 97 % 0.0 in
03:37 14.2 °F 13.7 °F 1020.2 in SSW 9.7 mph 12.9 mph 97 % 0.0 in
03:42 14.3 °F 13.8 °F 1020.2 in South 4.8 mph 11.3 mph 97 % 0.0 in
03:47 14.3 °F 13.8 °F 1020.2 in SSW 4.8 mph 11.3 mph 97 % 0.0 in
03:52 14.3 °F 14.0 °F 1020.2 in SW 3.2 mph 11.3 mph 98 % 0.0 in
03:57 14.3 °F 13.8 °F 1020.5 in SW 6.4 mph 11.3 mph 97 % 0.0 in
04:02 14.3 °F 14.0 °F 1020.5 in WSW 4.8 mph 11.3 mph 98 % 0.0 in
04:07 14.3 °F 14.0 °F 1020.2 in SW 8.0 mph 11.3 mph 98 % 0.0 in
04:12 14.3 °F 14.0 °F 1020.5 in SW 6.4 mph 11.3 mph 98 % 0.0 in
04:17 14.3 °F 14.0 °F 1020.2 in WSW 9.7 mph 11.3 mph 98 % 0.0 in
04:22 14.4 °F 14.1 °F 1020.2 in SW 9.7 mph 11.3 mph 98 % 0.0 in
04:27 14.4 °F 14.1 °F 1020.5 in SSW 8.0 mph 16.1 mph 98 % 0.0 in
04:32 14.4 °F 14.1 °F 1020.5 in SW 4.8 mph 16.1 mph 98 % 0.0 in
04:37 14.4 °F 14.1 °F 1020.5 in SW 3.2 mph 14.5 mph 98 % 0.0 in
04:42 14.4 °F 14.1 °F 1020.5 in SW 8.0 mph 11.3 mph 98 % 0.0 in
04:52 14.5 °F 14.2 °F 1020.5 in SSW 3.2 mph 11.3 mph 98 % 0.0 in
04:57 14.5 °F 14.2 °F 1020.5 in SW 4.8 mph 9.7 mph 98 % 0.0 in
05:02 14.5 °F 14.2 °F 1020.5 in SSE 4.8 mph 9.7 mph 98 % 0.0 in
05:07 14.5 °F 14.2 °F 1020.5 in SW 8.0 mph 8.0 mph 98 % 0.0 in
05:12 14.6 °F 14.3 °F 1020.5 in SW 6.4 mph 9.7 mph 98 % 0.0 in
05:22 14.6 °F 14.3 °F 1020.2 in SW 6.4 mph 11.3 mph 98 % 0.3 in
05:27 14.6 °F 14.3 °F 1020.2 in SW 6.4 mph 11.3 mph 98 % 0.3 in
05:32 14.7 °F 14.4 °F 1020.5 in SW 4.8 mph 11.3 mph 98 % 0.3 in
05:37 14.7 °F 14.4 °F 1020.5 in SSW 6.4 mph 11.3 mph 98 % 0.3 in
05:42 14.7 °F 14.4 °F 1020.5 in SW 8.0 mph 14.5 mph 98 % 0.3 in
05:47 14.8 °F 14.5 °F 1020.5 in SSW 3.2 mph 14.5 mph 98 % 0.3 in
05:57 14.8 °F 14.5 °F 1020.5 in SW 9.7 mph 12.9 mph 98 % 0.3 in
06:02 14.8 °F 14.5 °F 1020.5 in SW 4.8 mph 12.9 mph 98 % 0.3 in
06:12 14.9 °F 14.6 °F 1020.5 in SW 11.3 mph 14.5 mph 98 % 0.3 in
06:17 14.9 °F 14.6 °F 1020.5 in West 4.8 mph 14.5 mph 98 % 0.0 in
06:22 14.9 °F 14.6 °F 1020.5 in SSE 4.8 mph 16.1 mph 98 % 0.0 in
06:32 14.9 °F 14.6 °F 1020.5 in SW 3.2 mph 17.7 mph 98 % 0.0 in
06:42 14.9 °F 14.6 °F 1020.5 in SW 8.0 mph 12.9 mph 98 % 0.0 in
06:52 14.9 °F 14.6 °F 1020.5 in SW 8.0 mph 11.3 mph 98 % 0.0 in
07:02 15.0 °F 14.7 °F 1020.5 in SW 9.7 mph 14.5 mph 98 % 0.0 in
07:12 15.0 °F 14.7 °F 1020.5 in SSW 11.3 mph 16.1 mph 98 % 0.0 in
07:17 15.1 °F 14.8 °F 1020.5 in WSW 8.0 mph 16.1 mph 98 % 0.0 in
07:22 15.1 °F 14.8 °F 1020.5 in SW 8.0 mph 16.1 mph 98 % 0.0 in
07:27 15.1 °F 14.8 °F 1020.5 in SW 8.0 mph 16.1 mph 98 % 0.0 in
07:32 15.1 °F 14.8 °F 1020.5 in WSW 6.4 mph 14.5 mph 98 % 0.0 in
07:42 15.1 °F 14.8 °F 1020.5 in SSW 4.8 mph 14.5 mph 98 % 0.0 in
07:47 15.1 °F 14.8 °F 1020.5 in SW 6.4 mph 12.9 mph 98 % 0.0 in
07:52 15.1 °F 14.8 °F 1020.5 in SW 9.7 mph 12.9 mph 98 % 0.0 in
08:02 15.2 °F 14.9 °F 1020.5 in SSW 4.8 mph 12.9 mph 98 % 0.0 in
08:12 15.2 °F 14.9 °F 1020.5 in WSW 6.4 mph 12.9 mph 98 % 0.0 in
08:17 15.2 °F 14.9 °F 1020.9 in SW 6.4 mph 16.1 mph 98 % 0.0 in
08:22 15.2 °F 14.9 °F 1020.9 in SW 3.2 mph 16.1 mph 98 % 0.0 in
08:27 15.3 °F 15.0 °F 1020.9 in SW 6.4 mph 16.1 mph 98 % 0.0 in
08:32 15.3 °F 15.0 °F 1020.9 in SW 3.2 mph 12.9 mph 98 % 0.0 in
08:42 15.3 °F 15.0 °F 1020.9 in SW 4.8 mph 12.9 mph 98 % 0.0 in
08:47 15.3 °F 15.0 °F 1020.9 in SSE 4.8 mph 12.9 mph 98 % 0.0 in
08:52 15.4 °F 15.1 °F 1021.2 in West 6.4 mph 12.9 mph 98 % 0.0 in
08:57 15.4 °F 15.1 °F 1021.2 in SSW 1.6 mph 9.7 mph 98 % 0.0 in
09:02 15.4 °F 15.1 °F 1020.9 in SW 3.2 mph 9.7 mph 98 % 0.0 in
09:07 15.6 °F 15.3 °F 1020.9 in SW 12.9 mph 12.9 mph 98 % 0.0 in
09:12 15.6 °F 15.3 °F 1020.9 in West 8.0 mph 14.5 mph 98 % 0.0 in
09:17 15.6 °F 15.3 °F 1021.2 in SW 4.8 mph 14.5 mph 98 % 0.0 in
09:22 15.6 °F 15.3 °F 1021.2 in WSW 4.8 mph 14.5 mph 98 % 0.0 in
09:27 15.7 °F 15.4 °F 1021.2 in Calm   9.7 mph 98 % 0.0 in
09:32 15.8 °F 15.5 °F 1020.9 in SSW 1.6 mph 8.0 mph 98 % 0.0 in
09:37 15.8 °F 15.3 °F 1020.9 in SSW 4.8 mph 8.0 mph 97 % 0.0 in
09:42 16.1 °F 15.6 °F 1021.2 in SW 4.8 mph 8.0 mph 97 % 0.0 in
09:47 16.1 °F 15.6 °F 1020.9 in West 6.4 mph 11.3 mph 97 % 0.0 in
09:52 16.1 °F 15.6 °F 1021.2 in WSW 3.2 mph 14.5 mph 97 % 0.0 in
09:57 16.0 °F 15.5 °F 1021.2 in WSW 4.8 mph 14.5 mph 97 % 0.0 in
10:02 16.0 °F 15.5 °F 1021.2 in WSW 3.2 mph 14.5 mph 97 % 0.0 in
10:12 16.0 °F 15.4 °F 1021.2 in SW 9.7 mph 12.9 mph 96 % 0.0 in
10:17 16.1 °F 15.5 °F 1021.2 in WSW 6.4 mph 12.9 mph 96 % 0.0 in
10:22 16.1 °F 15.5 °F 1021.2 in WSW 6.4 mph 12.9 mph 96 % 0.0 in
10:27 16.2 °F 15.6 °F 1021.6 in WSW 8.0 mph 12.9 mph 96 % 0.0 in
10:32 16.2 °F 15.6 °F 1021.6 in SW 1.6 mph 12.9 mph 96 % 0.0 in
10:42 16.5 °F 15.7 °F 1021.6 in WSW 6.4 mph 12.9 mph 95 % 0.0 in
10:47 16.6 °F 15.8 °F 1021.6 in WSW 9.7 mph 11.3 mph 95 % 0.0 in
10:52 16.5 °F 15.5 °F 1021.6 in WSW 12.9 mph 14.5 mph 94 % 0.0 in
11:02 16.5 °F 15.5 °F 1021.6 in SSE 17.7 mph 17.7 mph 94 % 0.0 in
11:07 16.4 °F 15.4 °F 1021.6 in SW 11.3 mph 22.5 mph 94 % 0.0 in
11:17 16.4 °F 15.4 °F 1021.9 in SW 1.6 mph 24.1 mph 94 % 0.0 in
11:27 16.3 °F 15.2 °F 1021.9 in West 6.4 mph 20.9 mph 93 % 0.0 in
11:32 16.3 °F 15.2 °F 1021.9 in West 8.0 mph 20.9 mph 93 % 0.0 in
11:37 16.3 °F 15.2 °F 1021.9 in West 11.3 mph 20.9 mph 93 % 0.0 in
11:42 16.4 °F 15.1 °F 1021.9 in SW 11.3 mph 17.7 mph 92 % 0.0 in
11:52 16.6 °F 15.3 °F 1021.9 in WSW 4.8 mph 19.3 mph 92 % 0.0 in
12:02 16.7 °F 15.2 °F 1021.9 in WSW 16.1 mph 19.3 mph 91 % 0.0 in
12:07 16.8 °F 15.3 °F 1021.9 in WSW 17.7 mph 24.1 mph 91 % 0.0 in
12:12 16.9 °F 15.2 °F 1021.9 in WSW 9.7 mph 29.0 mph 90 % 0.0 in
12:17 17.1 °F 15.4 °F 1021.9 in WSW 16.1 mph 29.0 mph 90 % 0.0 in
12:22 17.3 °F 15.6 °F 1021.6 in SW 16.1 mph 29.0 mph 90 % 0.0 in
12:32 17.4 °F 15.6 °F 1021.9 in West 8.0 mph 25.7 mph 89 % 0.0 in
12:42 17.7 °F 15.9 °F 1021.9 in SW 6.4 mph 27.4 mph 89 % 0.3 in
12:47 18.0 °F 15.8 °F 1021.6 in West 12.9 mph 27.4 mph 87 % 0.3 in
12:57 17.9 °F 15.7 °F 1021.9 in WSW 11.3 mph 24.1 mph 87 % 0.3 in
13:07 17.8 °F 15.4 °F 1021.9 in SSW 8.0 mph 24.1 mph 86 % 0.3 in
13:12 17.9 °F 15.5 °F 1021.9 in SW 22.5 mph 24.1 mph 86 % 0.3 in
13:17 17.8 °F 15.4 °F 1021.6 in West 4.8 mph 24.1 mph 86 % 0.3 in
13:22 17.9 °F 15.7 °F 1021.9 in WSW 8.0 mph 24.1 mph 87 % 0.3 in
13:27 17.8 °F 15.4 °F 1021.6 in West 12.9 mph 25.7 mph 86 % 0.3 in
13:32 17.9 °F 15.7 °F 1021.6 in WSW 11.3 mph 25.7 mph 87 % 0.3 in
13:37 18.0 °F 15.6 °F 1021.6 in SSW 8.0 mph 25.7 mph 86 % 0.0 in
13:42 17.9 °F 15.3 °F 1021.6 in West 12.9 mph 19.3 mph 85 % 0.0 in
13:47 17.9 °F 15.5 °F 1021.6 in WSW 9.7 mph 24.1 mph 86 % 0.0 in
13:52 17.9 °F 15.3 °F 1021.9 in WSW 16.1 mph 29.0 mph 85 % 0.0 in
14:02 17.9 °F 15.7 °F 1021.6 in WSW 16.1 mph 33.8 mph 87 % 0.0 in
14:17 18.0 °F 15.8 °F 1021.6 in WSW 6.4 mph 20.9 mph 87 % 0.0 in
14:22 18.1 °F 15.9 °F 1021.6 in WSW 9.7 mph 20.9 mph 87 % 0.0 in
14:27 18.1 °F 15.9 °F 1021.9 in West 14.5 mph 20.9 mph 87 % 0.0 in
14:32 18.1 °F 15.9 °F 1021.9 in WSW 12.9 mph 20.9 mph 87 % 0.0 in
14:37 18.0 °F 15.8 °F 1021.9 in West 8.0 mph 20.9 mph 87 % 0.0 in
14:42 18.0 °F 15.8 °F 1021.6 in WSW 12.9 mph 19.3 mph 87 % 0.0 in
14:47 18.0 °F 15.8 °F 1021.6 in West 11.3 mph 19.3 mph 87 % 0.0 in
14:52 18.1 °F 15.9 °F 1021.6 in WSW 8.0 mph 19.3 mph 87 % 0.0 in
14:57 18.1 °F 15.9 °F 1021.6 in West 6.4 mph 22.5 mph 87 % 0.0 in
15:02 18.2 °F 15.8 °F 1021.6 in SW 9.7 mph 22.5 mph 86 % 0.0 in
15:12 18.1 °F 15.7 °F 1021.6 in SW 8.0 mph 19.3 mph 86 % 0.0 in
15:17 17.9 °F 15.5 °F 1021.6 in SW 9.7 mph 19.3 mph 86 % 0.0 in
15:22 17.9 °F 15.7 °F 1021.6 in SW 8.0 mph 24.1 mph 87 % 0.0 in
15:27 17.9 °F 15.7 °F 1021.6 in SW 4.8 mph 24.1 mph 87 % 0.0 in
15:32 17.9 °F 15.7 °F 1021.9 in SW 11.3 mph 22.5 mph 87 % 0.0 in
15:37 17.9 °F 15.9 °F 1021.9 in SW 4.8 mph 19.3 mph 88 % 0.0 in
15:42 17.8 °F 15.6 °F 1021.9 in West 12.9 mph 17.7 mph 87 % 0.0 in
15:47 17.9 °F 15.7 °F 1021.9 in WSW 12.9 mph 20.9 mph 87 % 0.0 in
15:52 17.9 °F 15.9 °F 1021.6 in WSW 8.0 mph 20.9 mph 88 % 0.0 in
16:02 18.1 °F 15.9 °F 1021.6 in West 11.3 mph 17.7 mph 87 % 0.0 in
16:07 18.1 °F 15.9 °F 1021.6 in SW 4.8 mph 16.1 mph 87 % 0.0 in
16:12 18.2 °F 16.0 °F 1021.6 in West 4.8 mph 19.3 mph 87 % 0.0 in
16:17 18.2 °F 16.0 °F 1021.6 in WSW 4.8 mph 19.3 mph 87 % 0.0 in
16:22 18.3 °F 16.1 °F 1021.6 in West 9.7 mph 19.3 mph 87 % 0.0 in
16:27 18.4 °F 16.2 °F 1021.2 in WNW 9.7 mph 19.3 mph 87 % 0.0 in
16:32 18.4 °F 16.0 °F 1021.2 in WSW 19.3 mph 19.3 mph 86 % 0.0 in
16:37 18.4 °F 16.2 °F 1021.2 in WSW 11.3 mph 19.3 mph 87 % 0.0 in
16:42 18.4 °F 16.0 °F 1021.2 in West 9.7 mph 19.3 mph 86 % 0.0 in
16:47 18.4 °F 16.2 °F 1021.6 in West 8.0 mph 19.3 mph 87 % 0.0 in
16:52 18.4 °F 16.2 °F 1021.6 in SW 6.4 mph 19.3 mph 87 % 0.0 in
16:57 18.4 °F 16.2 °F 1021.6 in WSW 9.7 mph 19.3 mph 87 % 0.0 in
17:02 18.4 °F 16.2 °F 1021.6 in SW 6.4 mph 16.1 mph 87 % 0.0 in
17:07 18.4 °F 16.2 °F 1021.6 in West 9.7 mph 16.1 mph 87 % 0.0 in
17:12 18.4 °F 16.2 °F 1021.6 in SW 11.3 mph 16.1 mph 87 % 0.0 in
17:17 18.4 °F 16.2 °F 1021.6 in WSW 3.2 mph 16.1 mph 87 % 0.0 in
17:22 18.4 °F 16.2 °F 1021.2 in SW 14.5 mph 16.1 mph 87 % 0.0 in
17:32 18.5 °F 16.3 °F 1021.2 in West 4.8 mph 20.9 mph 87 % 0.0 in
17:37 18.6 °F 16.6 °F 1021.2 in WSW 9.7 mph 20.9 mph 88 % 0.0 in
17:42 18.7 °F 16.5 °F 1021.2 in SW 16.1 mph 19.3 mph 87 % 0.0 in
17:47 18.7 °F 16.5 °F 1021.2 in WSW 11.3 mph 17.7 mph 87 % 0.0 in
17:52 18.8 °F 16.6 °F 1021.2 in WSW 8.0 mph 17.7 mph 87 % 0.0 in
17:57 18.7 °F 16.5 °F 1021.2 in West 4.8 mph 16.1 mph 87 % 0.0 in
18:02 18.7 °F 16.5 °F 1021.2 in WSW 11.3 mph 20.9 mph 87 % 0.0 in
18:07 18.7 °F 16.5 °F 1021.2 in West 8.0 mph 22.5 mph 87 % 0.0 in
18:12 18.6 °F 16.4 °F 1021.6 in SW 4.8 mph 22.5 mph 87 % 0.0 in
18:17 18.6 °F 16.6 °F 1021.6 in WSW 14.5 mph 20.9 mph 88 % 0.0 in
18:22 18.5 °F 16.5 °F 1021.6 in SW 9.7 mph 22.5 mph 88 % 0.0 in
18:27 18.5 °F 16.5 °F 1021.6 in WSW 6.4 mph 22.5 mph 88 % 0.0 in
18:32 18.5 °F 16.5 °F 1021.6 in WSW 9.7 mph 19.3 mph 88 % 0.0 in
18:42 18.5 °F 16.5 °F 1021.6 in West 4.8 mph 12.9 mph 88 % 0.0 in
18:47 18.4 °F 16.4 °F 1021.6 in West 9.7 mph 19.3 mph 88 % 0.0 in
18:52 18.3 °F 16.5 °F 1021.6 in West 9.7 mph 19.3 mph 89 % 0.0 in
18:57 18.2 °F 16.5 °F 1021.6 in WSW 12.9 mph 19.3 mph 90 % 0.0 in
19:02 18.0 °F 16.5 °F 1021.6 in SW 8.0 mph 20.9 mph 91 % 0.0 in
19:07 17.8 °F 16.5 °F 1021.6 in WSW 14.5 mph 20.9 mph 92 % 0.0 in
19:12 17.7 °F 16.4 °F 1021.6 in WSW 4.8 mph 17.7 mph 92 % 0.0 in
19:17 17.6 °F 16.5 °F 1021.6 in West 12.9 mph 19.3 mph 93 % 0.0 in
19:22 17.6 °F 16.5 °F 1021.6 in West 3.2 mph 19.3 mph 93 % 0.0 in
19:27 17.6 °F 16.5 °F 1021.6 in South 3.2 mph 16.1 mph 93 % 0.0 in
19:32 17.5 °F 16.4 °F 1021.6 in WSW 9.7 mph 16.1 mph 93 % 0.0 in
19:37 17.5 °F 16.5 °F 1021.6 in SW 3.2 mph 19.3 mph 94 % 0.0 in
19:42 17.4 °F 16.4 °F 1021.6 in SW 8.0 mph 19.3 mph 94 % 0.0 in
19:47 17.4 °F 16.4 °F 1021.6 in West 11.3 mph 19.3 mph 94 % 0.0 in
19:52 17.4 °F 16.4 °F 1021.6 in WSW 8.0 mph 19.3 mph 94 % 0.0 in
19:57 17.3 °F 16.5 °F 1021.6 in SW 16.1 mph 16.1 mph 95 % 0.0 in
20:02 17.3 °F 16.5 °F 1021.6 in SSW 8.0 mph 20.9 mph 95 % 0.0 in
20:07 17.3 °F 16.5 °F 1021.6 in SW 9.7 mph 20.9 mph 95 % 0.0 in
20:12 17.2 °F 16.4 °F 1021.6 in SW 4.8 mph 20.9 mph 95 % 0.0 in
20:17 17.2 °F 16.4 °F 1021.6 in SSW 6.4 mph 16.1 mph 95 % 0.0 in
20:27 17.2 °F 16.6 °F 1021.2 in SW 9.7 mph 16.1 mph 96 % 0.0 in
20:32 17.1 °F 16.5 °F 1021.6 in WSW 8.0 mph 16.1 mph 96 % 0.0 in
20:37 17.1 °F 16.5 °F 1021.6 in SW 4.8 mph 12.9 mph 96 % 0.0 in
20:42 17.1 °F 16.5 °F 1021.2 in SW 8.0 mph 12.9 mph 96 % 0.0 in
20:47 17.1 °F 16.5 °F 1021.2 in SW 11.3 mph 14.5 mph 96 % 0.0 in
20:52 17.1 °F 16.5 °F 1021.6 in SW 8.0 mph 16.1 mph 96 % 0.0 in
20:57 17.1 °F 16.5 °F 1021.6 in WSW 11.3 mph 17.7 mph 96 % 0.3 in
21:02 17.1 °F 16.5 °F 1021.6 in WSW 11.3 mph 19.3 mph 96 % 0.3 in
21:07 17.1 °F 16.5 °F 1021.2 in SSW 6.4 mph 19.3 mph 96 % 0.3 in
21:12 17.1 °F 16.5 °F 1021.2 in West 6.4 mph 19.3 mph 96 % 0.3 in
21:17 17.1 °F 16.5 °F 1021.2 in SW 6.4 mph 19.3 mph 96 % 0.3 in
21:22 17.1 °F 16.5 °F 1021.2 in WSW 8.0 mph 20.9 mph 96 % 0.3 in
21:27 17.1 °F 16.5 °F 1021.2 in SW 8.0 mph 20.9 mph 96 % 0.3 in
21:32 17.1 °F 16.5 °F 1021.2 in SW 8.0 mph 20.9 mph 96 % 0.3 in
21:37 17.1 °F 16.5 °F 1021.2 in SSW 8.0 mph 19.3 mph 96 % 0.3 in
21:42 17.1 °F 16.5 °F 1021.2 in WSW 4.8 mph 19.3 mph 96 % 0.3 in
21:47 17.2 °F 16.6 °F 1021.2 in SW 14.5 mph 19.3 mph 96 % 0.3 in
21:52 17.2 °F 16.6 °F 1021.2 in SW 8.0 mph 20.9 mph 96 % 0.0 in
21:57 17.2 °F 16.6 °F 1021.2 in SW 4.8 mph 20.9 mph 96 % 0.0 in
22:02 17.2 °F 16.6 °F 1021.2 in WSW 12.9 mph 20.9 mph 96 % 0.0 in
22:07 17.3 °F 16.7 °F 1021.2 in SW 4.8 mph 17.7 mph 96 % 0.0 in
22:12 17.3 °F 16.7 °F 1020.9 in WSW 9.7 mph 19.3 mph 96 % 0.0 in
22:17 17.3 °F 16.7 °F 1020.9 in West 8.0 mph 19.3 mph 96 % 0.0 in
22:22 17.3 °F 16.7 °F 1020.9 in WSW 9.7 mph 19.3 mph 96 % 0.3 in
22:27 17.3 °F 16.7 °F 1020.9 in SSW 12.9 mph 24.1 mph 96 % 0.3 in
22:32 17.3 °F 16.7 °F 1020.9 in SW 12.9 mph 24.1 mph 96 % 0.3 in
22:37 17.3 °F 16.7 °F 1020.9 in WSW 22.5 mph 24.1 mph 96 % 0.3 in
22:42 17.3 °F 16.7 °F 1020.9 in West 4.8 mph 24.1 mph 96 % 0.3 in
22:47 17.3 °F 16.7 °F 1020.9 in SW 8.0 mph 24.1 mph 96 % 0.3 in
22:52 17.3 °F 16.7 °F 1020.9 in West 6.4 mph 24.1 mph 96 % 0.3 in
22:57 17.3 °F 16.7 °F 1020.9 in West 8.0 mph 20.9 mph 96 % 0.3 in
23:02 17.3 °F 16.7 °F 1020.9 in SW 11.3 mph 22.5 mph 96 % 0.3 in
23:07 17.3 °F 16.7 °F 1020.9 in SW 12.9 mph 22.5 mph 96 % 0.3 in
23:12 17.3 °F 16.7 °F 1020.5 in WSW 17.7 mph 24.1 mph 96 % 0.3 in
23:17 17.3 °F 16.7 °F 1020.9 in WSW 11.3 mph 24.1 mph 96 % 0.3 in
23:22 17.3 °F 16.7 °F 1020.9 in SW 6.4 mph 30.6 mph 96 % 0.0 in
23:32 17.3 °F 16.7 °F 1020.9 in WSW 8.0 mph 27.4 mph 96 % 0.0 in
23:37 17.3 °F 16.7 °F 1020.9 in WSW 4.8 mph 24.1 mph 96 % 0.0 in
23:42 17.3 °F 16.7 °F 1020.9 in SW 12.9 mph 24.1 mph 96 % 0.0 in
23:47 17.3 °F 16.7 °F 1020.9 in SW 12.9 mph 24.1 mph 96 % 0.0 in
23:52 17.3 °F 16.7 °F 1020.9 in SW 12.9 mph 20.9 mph 96 % 0.0 in
23:57 17.4 °F 16.8 °F 1020.9 in SW 6.4 mph 27.4 mph 96 % 0.0 in
Meteo18
Compliments of Weather Underground - 4 mb

Script developed by  Jim McMurry - jmcmurry@mwt.net Adapted for the template by  Wim van der Kuil - Leuven-Template.eu

You find our weather info also at:

European Weather Network

Weather Underground

Equipment we use:

Weather-station
Davis Vue

Weather-program
Meteobridge

Weather-server
Raspberry PI 2 B+

Provider
1 and 1

Davis Vue

Meteobridge

Raspberry PI 2 B+

1 and 1